Location: Kraków
(50.0510°N, 19.9317°E)
Time: 02:27:35
(UTC+01:00)

ISS - Visible Passes

Search period start: 23 January 2019 00:00
Search period end: 02 February 2019 00:00
Orbit: 404 x 411 km, 51.6° (Epoch: 23 January)

Date Brightness Start Highest point End Pass type
(mag) Time Alt. Az. Time Alt. Az. Time Alt. Az.
23 Jan -1.7 18:39:40 10° SSW 18:41:04 20° SSW 18:41:04 20° SSW visible
24 Jan -2.1 17:48:55 10° SSW 17:51:26 20° SE 17:52:03 19° SE visible
24 Jan -0.6 19:24:19 10° WSW 19:24:46 13° WSW 19:24:46 13° WSW visible
25 Jan -1.5 16:58:43 10° SSE 17:00:18 13° SE 17:01:54 10° ESE visible
25 Jan -3.1 18:33:02 10° SW 18:35:40 46° SSW 18:35:40 46° SSW visible
26 Jan -3.0 17:41:55 10° SW 17:45:00 37° SSE 17:46:30 23° E visible
26 Jan -1.1 19:18:06 10° W 19:19:13 20° W 19:19:13 20° W visible
27 Jan -3.9 18:26:42 10° WSW 18:30:00 88° S 18:30:00 88° S visible
28 Jan -3.7 17:35:21 10° WSW 17:38:37 66° SSE 17:40:44 20° E visible
28 Jan -1.5 19:11:55 10° W 19:13:26 24° WNW 19:13:26 24° WNW visible
29 Jan -3.8 18:20:27 10° W 18:23:45 70° N 18:24:08 61° NE visible
30 Jan -3.8 17:28:59 10° WSW 17:32:18 83° NNW 17:34:49 16° ENE visible
30 Jan -1.9 19:05:41 10° WNW 19:07:31 30° WNW 19:07:31 30° WNW visible
31 Jan -3.7 18:14:12 10° W 18:17:29 63° N 18:18:11 48° NE visible
31 Jan -0.2 19:50:49 10° WNW 19:50:54 11° WNW 19:50:54 11° WNW visible
01 Feb -3.7 17:22:42 10° W 17:25:59 66° N 17:28:51 13° ENE visible
01 Feb -2.4 18:59:21 10° WNW 19:01:34 39° WNW 19:01:34 39° WNW visible
